Fallon Naval Air Station /Van Voorhis Field
KNFL : now visible

Airfield :











YOU CAN JOIN US ON...

 
LOGIN :

Register | Disclaimer

   EN    FR    IT 

 









Legend :    VFR   Marginal VFR   IFR   Intensive IFR   Very Intensive IFR
Visi :
Ceiling :
>= 8 km
>= 3000ft
5 to 8 km
1000 to 3000 ft
1500m to 5 km
500 to 1000 ft
800 to 1500m
200 to 500 ft
< 800m
< 200 ft
Symbols :   Thunderstorms  Fog  Heavy snow  Heavy precipitations  Wind > 20 kt






- Airport Elevation : 3934 ft


KNFL - Fallon Naval Air Station /Van Voorhis Field

CURRENT METAR :
  • 291656Z 27003KT 10SM FEW100 SCT170 29/M01 A3002 RMK AO2 SLP136 T02941011

EXPIRED METARs :
  • 291556Z 00000KT 10SM FEW070 SCT150 26/M01 A3004 RMK AO2 SLP140 T02611011
  • 291456Z 17004KT 10SM SCT150 23/M02 A3005 RMK AO2 SLP144 T02281022 50004
  • 291415Z 16005KT 10SM FEW070 19/M02 A3005 RMK AO2 T01941017

TAF COR TAF KNFL
Valid from the 29 at 15:00 until the 30 at 15:00 UTC


2915/3015 VRB06KT 9999 FEW070 SCT150 QNH2992INS
FM292200 VRB06KT 9999 FEW070 SCT120 SCT250 QNH2970INS
TEMPO 3000/3004 VRB12G22KT 9999 VCTS SCT070CB BKN100 T38/2923Z T08/3013Z COR 1540 FS30003
KZOA FIR / North America



MET'MAP, your aeronautical weather chart ! - Copyright ORBIFLY December 2007 - Disclaimer

ORBIFLY MET'MAP TEAM :

Programming & Development : Alexandra Zaïnal
Concept & original design : Baudouin d'Aumeries
Assistance for programming : Marc-Olivier Méhu
Technical & hardware support : Manuel Goepfert

Contact : metmap@orbifly.com




SOURCES & CREDITS :

   NOAA       Earth
Advisory